UKV858 EGCC-EBBR

Flight info

Callsign UKV858
Flight time N/A
Altitude 25000
Route EGPH/06 N0405F250 TLA6D TLA Y96 OTBUN/N0446F370 DCT NATEB DCT GODOS DCT ALFEN DCT ORCAV Z310 WOODY WODY9A EBBR/07L
Aircraft A321/M-SG/L

Departure

Time N/A
Airport Manchester Airport (EGCC)

Arrival

Time 2026-04-30 21:21
Airport Brussels Airport (EBBR)
Time Latitude Longitude Altitude Speed Heading
2026-04-30 19:19 55.94837 -3.36645 105 ft 0 kts 89°
2026-04-30 19:33 55.94836 -3.36679 104 ft 4 kts 68°
2026-04-30 19:34 55.94826 -3.36705 103 ft 4 kts 343°
2026-04-30 19:34 55.94821 -3.36698 102 ft 1 kts 296°
2026-04-30 19:34 55.94820 -3.36695 102 ft 0 kts 296°
2026-04-30 19:36 55.94822 -3.36700 102 ft 2 kts 296°
2026-04-30 19:36 55.94871 -3.36786 105 ft 7 kts 341°
2026-04-30 19:37 55.94916 -3.36824 104 ft 8 kts 324°
2026-04-30 19:37 55.94915 -3.36922 104 ft 10 kts 242°
2026-04-30 19:37 55.94876 -3.37042 105 ft 12 kts 239°
2026-04-30 19:37 55.94833 -3.37172 105 ft 13 kts 239°
2026-04-30 19:38 55.94783 -3.37317 106 ft 13 kts 238°
2026-04-30 19:38 55.94737 -3.37451 108 ft 12 kts 238°
2026-04-30 19:38 55.94692 -3.37585 112 ft 13 kts 239°
2026-04-30 19:38 55.94647 -3.37718 114 ft 13 kts 239°
2026-04-30 19:39 55.94615 -3.37814 112 ft 6 kts 239°
2026-04-30 19:39 55.94585 -3.37902 111 ft 10 kts 239°
2026-04-30 19:39 55.94542 -3.38027 111 ft 14 kts 238°
2026-04-30 19:39 55.94484 -3.38196 111 ft 18 kts 239°
2026-04-30 19:40 55.94419 -3.38390 113 ft 18 kts 239°
2026-04-30 19:40 55.94354 -3.38582 114 ft 17 kts 239°
2026-04-30 19:40 55.94300 -3.38742 116 ft 12 kts 239°
2026-04-30 19:40 55.94288 -3.38853 118 ft 8 kts 297°
2026-04-30 19:41 55.94335 -3.38916 120 ft 10 kts 329°
2026-04-30 19:41 55.94405 -3.38965 117 ft 9 kts 18°
2026-04-30 19:41 55.94430 -3.38918 119 ft 0 kts 61°
2026-04-30 19:41 55.94451 -3.38857 118 ft 30 kts 58°
2026-04-30 19:42 55.94710 -3.38093 113 ft 110 kts 59°
2026-04-30 19:42 55.95203 -3.36629 310 ft 150 kts 60°
2026-04-30 19:42 55.95746 -3.35052 1026 ft 155 kts 62°
2026-04-30 19:42 55.96394 -3.33464 1757 ft 162 kts 53°
2026-04-30 19:43 55.97247 -3.32003 2193 ft 180 kts 48°
2026-04-30 19:43 55.98207 -3.30400 2616 ft 196 kts 50°
2026-04-30 19:43 55.99223 -3.28624 3009 ft 214 kts 48°
2026-04-30 19:44 56.01712 -3.24657 3590 ft 267 kts 44°
2026-04-30 19:44 56.03157 -3.22418 4262 ft 278 kts 43°
2026-04-30 19:44 56.04574 -3.20041 5098 ft 281 kts 54°
2026-04-30 19:44 56.05326 -3.16877 5814 ft 279 kts 86°
2026-04-30 19:45 56.05315 -3.13461 5977 ft 272 kts 101°
2026-04-30 19:45 56.04940 -3.10207 6050 ft 268 kts 112°
2026-04-30 19:45 56.03984 -3.07430 5994 ft 259 kts 140°
2026-04-30 19:45 56.02473 -3.05711 5990 ft 258 kts 155°
2026-04-30 19:46 56.00881 -3.04228 6037 ft 259 kts 151°
2026-04-30 19:46 55.99376 -3.02407 5999 ft 260 kts 144°
2026-04-30 19:46 55.97944 -3.00436 6047 ft 260 kts 148°
2026-04-30 19:46 55.96302 -2.99204 5991 ft 255 kts 174°
2026-04-30 19:47 55.94542 -2.99550 5993 ft 257 kts 196°
2026-04-30 19:47 55.93419 -3.00255 6009 ft 259 kts 200°
2026-04-30 19:47 55.91216 -3.02019 6031 ft 260 kts 204°
2026-04-30 19:47 55.89623 -3.03439 6035 ft 260 kts 205°
2026-04-30 19:48 55.88515 -3.04421 6346 ft 263 kts 205°
2026-04-30 19:48 55.88112 -3.04775 6501 ft 267 kts 204°
2026-04-30 19:48 55.86446 -3.06210 7430 ft 264 kts 203°
2026-04-30 19:49 55.84781 -3.07605 8348 ft 265 kts 202°
2026-04-30 19:49 55.81415 -3.10341 10129 ft 268 kts 201°
2026-04-30 19:49 55.79685 -3.11731 10647 ft 283 kts 201°
2026-04-30 19:50 55.77815 -3.13220 10876 ft 306 kts 201°
2026-04-30 19:50 55.75806 -3.14812 11204 ft 323 kts 201°
2026-04-30 19:50 55.73735 -3.16452 11844 ft 329 kts 201°
2026-04-30 19:50 55.71632 -3.18120 12542 ft 333 kts 201°
2026-04-30 19:51 55.69536 -3.19783 13293 ft 336 kts 201°
2026-04-30 19:51 55.67395 -3.21481 14062 ft 338 kts 201°
2026-04-30 19:51 55.65237 -3.23191 14739 ft 342 kts 201°
2026-04-30 19:51 55.63049 -3.24922 15390 ft 346 kts 202°
2026-04-30 19:52 55.60839 -3.26669 16036 ft 350 kts 202°
2026-04-30 19:52 55.58599 -3.28415 16691 ft 353 kts 200°
2026-04-30 19:52 55.56209 -3.29419 17313 ft 356 kts 183°
2026-04-30 19:52 55.53733 -3.29039 17924 ft 361 kts 166°
2026-04-30 19:53 55.51429 -3.27224 18555 ft 368 kts 148°
2026-04-30 19:53 55.49547 -3.24106 19091 ft 378 kts 130°
2026-04-30 19:53 55.48329 -3.19949 19667 ft 390 kts 111°
2026-04-30 19:53 55.47757 -3.15221 20260 ft 396 kts 105°
2026-04-30 19:54 55.47258 -3.10488 20864 ft 398 kts 105°
2026-04-30 19:54 55.46751 -3.05673 21434 ft 401 kts 105°
2026-04-30 19:54 55.46132 -3.00896 22000 ft 400 kts 112°
2026-04-30 19:54 55.45080 -2.96361 22525 ft 397 kts 122°
2026-04-30 19:55 55.43733 -2.92111 23075 ft 398 kts 124°
2026-04-30 19:55 55.42366 -2.87847 23633 ft 401 kts 124°
2026-04-30 19:55 55.40993 -2.83556 24117 ft 404 kts 124°
2026-04-30 19:55 55.39613 -2.79238 24557 ft 406 kts 124°
2026-04-30 19:56 55.38219 -2.74884 24960 ft 409 kts 123°
2026-04-30 19:56 55.36816 -2.70511 25360 ft 412 kts 123°
2026-04-30 19:56 55.35404 -2.66110 25775 ft 415 kts 123°
2026-04-30 19:56 55.33989 -2.61676 26201 ft 417 kts 123°
2026-04-30 19:57 55.32607 -2.57237 26607 ft 420 kts 122°
2026-04-30 19:57 55.31221 -2.52702 26999 ft 423 kts 122°
2026-04-30 19:57 55.29819 -2.48069 27419 ft 425 kts 122°
2026-04-30 19:57 55.28433 -2.43480 27807 ft 428 kts 122°
2026-04-30 19:58 55.27046 -2.38914 28203 ft 430 kts 122°
2026-04-30 19:58 55.25627 -2.34280 28588 ft 432 kts 122°
2026-04-30 19:58 55.24197 -2.29638 29003 ft 435 kts 122°
2026-04-30 19:58 55.22751 -2.24972 29434 ft 437 kts 123°
2026-04-30 19:59 55.21292 -2.20281 29836 ft 439 kts 123°
2026-04-30 19:59 55.19825 -2.15564 30195 ft 441 kts 122°
2026-04-30 19:59 55.16898 -2.06139 31094 ft 440 kts 122°
2026-04-30 20:00 55.15436 -2.01449 31544 ft 439 kts 122°
2026-04-30 20:00 55.13976 -1.96785 31984 ft 438 kts 122°
2026-04-30 20:00 55.12512 -1.92110 32430 ft 437 kts 123°
2026-04-30 20:00 55.11053 -1.87455 32844 ft 436 kts 123°
2026-04-30 20:01 55.08135 -1.78178 33698 ft 435 kts 123°
2026-04-30 20:01 55.06677 -1.73569 34121 ft 434 kts 123°
2026-04-30 20:01 55.05216 -1.68960 34498 ft 434 kts 123°
2026-04-30 20:02 55.02295 -1.59752 35185 ft 433 kts 122°
2026-04-30 20:02 55.00835 -1.55154 35540 ft 433 kts 122°
2026-04-30 20:03 54.97933 -1.46045 36220 ft 432 kts 122°
2026-04-30 20:03 54.96471 -1.41477 36557 ft 432 kts 122°
2026-04-30 20:03 54.95004 -1.36911 36869 ft 432 kts 122°
2026-04-30 20:03 54.93533 -1.32347 37169 ft 433 kts 122°
2026-04-30 20:04 54.92060 -1.27783 37456 ft 433 kts 122°
2026-04-30 20:04 54.90587 -1.23216 37735 ft 433 kts 122°
2026-04-30 20:04 54.89113 -1.18633 38002 ft 434 kts 122°
2026-04-30 20:05 54.86157 -1.09466 38288 ft 435 kts 122°
2026-04-30 20:05 54.81710 -0.95792 38290 ft 433 kts 122°
2026-04-30 20:06 54.78737 -0.86716 38292 ft 433 kts 122°
2026-04-30 20:06 54.75755 -0.77647 38298 ft 433 kts 122°
2026-04-30 20:07 54.72765 -0.68584 38296 ft 433 kts 122°
2026-04-30 20:08 54.68264 -0.54993 38305 ft 435 kts 122°
2026-04-30 20:08 54.65255 -0.45933 38311 ft 435 kts 122°
2026-04-30 20:09 54.62231 -0.36871 38313 ft 435 kts 122°
2026-04-30 20:09 54.57698 -0.23378 38320 ft 435 kts 122°
2026-04-30 20:10 54.53141 -0.09840 38319 ft 435 kts 122°
2026-04-30 20:11 54.48565 0.03663 38318 ft 435 kts 123°
2026-04-30 20:11 54.45501 0.12653 38328 ft 434 kts 123°
2026-04-30 20:12 54.40929 0.25999 38330 ft 434 kts 123°
2026-04-30 20:13 54.37863 0.34934 38330 ft 433 kts 123°
2026-04-30 20:13 54.34796 0.43828 38335 ft 433 kts 123°
2026-04-30 20:14 54.31729 0.52698 38331 ft 433 kts 123°
2026-04-30 20:14 54.28646 0.61574 38317 ft 433 kts 123°
2026-04-30 20:15 54.26070 0.68933 38320 ft 434 kts 123°
2026-04-30 20:15 54.22973 0.77786 38322 ft 434 kts 123°
2026-04-30 20:16 54.19869 0.86651 38329 ft 434 kts 123°
2026-04-30 20:16 54.16757 0.95495 38330 ft 434 kts 123°
2026-04-30 20:17 54.13651 1.04260 38331 ft 434 kts 123°
2026-04-30 20:17 54.10525 1.13068 38318 ft 434 kts 123°
2026-04-30 20:18 54.07394 1.21887 38325 ft 435 kts 123°
2026-04-30 20:18 54.04247 1.30677 38335 ft 435 kts 124°
2026-04-30 20:19 54.01093 1.39456 38334 ft 435 kts 124°
2026-04-30 20:19 53.97933 1.48223 38343 ft 435 kts 124°
2026-04-30 20:20 53.94770 1.56976 38346 ft 435 kts 124°
2026-04-30 20:20 53.91622 1.65665 38334 ft 435 kts 124°
2026-04-30 20:21 53.88445 1.74404 38338 ft 435 kts 124°
2026-04-30 20:21 53.85263 1.83126 38341 ft 435 kts 124°
2026-04-30 20:22 53.82066 1.91841 38339 ft 435 kts 124°
2026-04-30 20:22 53.78870 2.00552 38342 ft 435 kts 124°
2026-04-30 20:23 53.75665 2.09230 38332 ft 435 kts 124°
2026-04-30 20:23 53.72473 2.17851 38333 ft 435 kts 124°
2026-04-30 20:24 53.69262 2.26509 38332 ft 435 kts 124°
2026-04-30 20:24 53.66048 2.35145 38333 ft 435 kts 124°
2026-04-30 20:25 53.61068 2.47885 38331 ft 431 kts 135°
2026-04-30 20:26 53.54746 2.58650 38334 ft 431 kts 136°
2026-04-30 20:26 53.48364 2.69340 38335 ft 431 kts 136°
2026-04-30 20:27 53.39884 2.83476 38334 ft 431 kts 136°
2026-04-30 20:28 53.31385 2.97599 38333 ft 430 kts 137°
2026-04-30 20:30 53.20719 3.15190 38294 ft 431 kts 137°
2026-04-30 20:31 53.07928 3.36113 38315 ft 430 kts 136°
2026-04-30 20:32 52.97232 3.53473 38326 ft 430 kts 137°
2026-04-30 20:33 52.90798 3.63847 38336 ft 430 kts 136°
2026-04-30 20:34 52.84367 3.74182 38340 ft 429 kts 136°
2026-04-30 20:35 52.77926 3.84489 38335 ft 430 kts 136°
2026-04-30 20:35 52.71488 3.94745 38345 ft 430 kts 137°
2026-04-30 20:36 52.67168 4.01585 38356 ft 430 kts 136°
2026-04-30 20:37 52.60678 4.11834 38351 ft 430 kts 136°
2026-04-30 20:37 52.56349 4.18656 38344 ft 431 kts 136°
2026-04-30 20:38 52.52020 4.25470 38336 ft 431 kts 136°
2026-04-30 20:38 52.47670 4.32289 38340 ft 432 kts 136°
2026-04-30 20:39 52.41160 4.42438 38352 ft 431 kts 136°
2026-04-30 20:40 52.34701 4.52462 38295 ft 414 kts 136°
2026-04-30 20:40 52.32597 4.55730 39424 ft 420 kts 136°
2026-04-30 20:40 52.30469 4.59027 39281 ft 425 kts 136°
2026-04-30 20:41 52.26139 4.65712 39004 ft 429 kts 136°
2026-04-30 20:41 52.23965 4.69064 39431 ft 430 kts 136°
2026-04-30 20:41 52.19656 4.75703 39274 ft 429 kts 136°
2026-04-30 20:42 52.17469 4.79013 39139 ft 429 kts 140°
2026-04-30 20:42 52.15096 4.81988 38979 ft 427 kts 143°
2026-04-30 20:42 52.10330 4.87771 37855 ft 426 kts 142°
2026-04-30 20:43 52.07956 4.90659 37229 ft 427 kts 142°
2026-04-30 20:43 52.05572 4.93558 36522 ft 429 kts 142°
2026-04-30 20:43 52.03170 4.96376 35794 ft 433 kts 147°
2026-04-30 20:44 51.97504 4.99892 34452 ft 441 kts 169°
2026-04-30 20:44 51.94438 5.00231 33705 ft 444 kts 181°
2026-04-30 20:44 51.88390 4.98015 32168 ft 451 kts 199°
2026-04-30 20:45 51.82490 4.94365 30595 ft 455 kts 199°
2026-04-30 20:45 51.79522 4.92544 29684 ft 457 kts 199°
2026-04-30 20:45 51.76550 4.90769 34363 ft 453 kts 197°
2026-04-30 20:46 51.67746 4.85440 32286 ft 452 kts 199°
2026-04-30 20:46 51.64807 4.83608 31524 ft 454 kts 199°
2026-04-30 20:47 51.59062 4.79315 29964 ft 458 kts 212°
2026-04-30 20:47 51.56614 4.76129 29223 ft 458 kts 223°
2026-04-30 20:48 51.52856 4.67967 27859 ft 453 kts 236°
2026-04-30 20:48 51.51192 4.63697 27202 ft 449 kts 236°
2026-04-30 20:48 51.49540 4.59465 26559 ft 446 kts 236°
2026-04-30 20:48 51.47901 4.55273 25917 ft 442 kts 236°
2026-04-30 20:49 51.46268 4.51110 25279 ft 440 kts 236°
2026-04-30 20:49 51.44637 4.46969 24652 ft 437 kts 235°
2026-04-30 20:49 51.43021 4.42870 24057 ft 433 kts 235°
2026-04-30 20:50 51.39029 4.35924 22736 ft 419 kts 213°
2026-04-30 20:50 51.36548 4.33578 22123 ft 411 kts 202°
2026-04-30 20:50 51.33960 4.31687 26593 ft 406 kts 199°
2026-04-30 20:50 51.31299 4.30119 30965 ft 410 kts 192°
2026-04-30 20:51 51.28466 4.29750 39391 ft 416 kts 174°
2026-04-30 20:52 51.27019 4.29997 39028 ft 418 kts 167°
2026-04-30 20:52 51.24316 4.31669 38207 ft 418 kts 144°
2026-04-30 20:52 51.20762 4.38915 36902 ft 418 kts 115°
2026-04-30 20:53 51.19643 4.43136 36774 ft 407 kts 111°
2026-04-30 20:53 51.18636 4.47304 36445 ft 401 kts 110°
2026-04-30 20:53 51.18010 4.51732 35182 ft 419 kts 95°
2026-04-30 20:54 51.19031 4.61124 32580 ft 454 kts 64°
2026-04-30 20:54 51.20898 4.65222 31532 ft 464 kts 45°
2026-04-30 20:54 51.23586 4.68097 30539 ft 473 kts 25°
2026-04-30 20:55 51.30146 4.68861 28149 ft 489 kts 346°
2026-04-30 20:55 51.33244 4.66589 26939 ft 495 kts 326°
2026-04-30 20:55 51.35741 4.62786 25769 ft 499 kts 308°
2026-04-30 20:56 51.39048 4.53058 23983 ft 494 kts 292°
2026-04-30 20:56 51.40309 4.47980 23156 ft 488 kts 291°
2026-04-30 20:56 51.41509 4.37549 21464 ft 472 kts 263°
2026-04-30 20:57 51.40752 4.32499 20659 ft 462 kts 244°
2026-04-30 20:57 51.39035 4.28280 19876 ft 449 kts 223°
2026-04-30 20:57 51.36547 4.25378 19080 ft 437 kts 202°
2026-04-30 20:58 51.30766 4.24239 17382 ft 417 kts 167°
2026-04-30 20:58 51.28101 4.25769 16557 ft 409 kts 150°
2026-04-30 20:58 51.25853 4.28482 15789 ft 404 kts 133°
2026-04-30 20:58 51.24248 4.32110 15063 ft 400 kts 116°
2026-04-30 20:59 51.21759 4.40009 13614 ft 395 kts 119°
2026-04-30 20:59 51.20414 4.43799 12917 ft 391 kts 120°
2026-04-30 21:00 51.18138 4.51529 11518 ft 383 kts 102°
2026-04-30 21:00 51.18442 4.58450 10347 ft 380 kts 72°
2026-04-30 21:01 51.21583 4.65090 8814 ft 382 kts 38°
2026-04-30 21:01 51.23957 4.66992 8064 ft 383 kts 20°
2026-04-30 21:01 51.29171 4.66955 7104 ft 371 kts 343°
2026-04-30 21:02 51.31432 4.65189 7017 ft 351 kts 326°
2026-04-30 21:02 51.32763 4.63403 7019 ft 321 kts 314°
2026-04-30 21:03 51.33752 4.61464 7027 ft 294 kts 304°
2026-04-30 21:03 51.34789 4.58849 7031 ft 268 kts 295°
2026-04-30 21:03 51.35403 4.56074 7035 ft 263 kts 278°
2026-04-30 21:03 51.35595 4.53176 7048 ft 262 kts 266°
2026-04-30 21:04 51.35440 4.50304 7040 ft 257 kts 255°
2026-04-30 21:04 51.34953 4.47573 7036 ft 254 kts 243°
2026-04-30 21:04 51.33060 4.42955 7040 ft 246 kts 219°
2026-04-30 21:05 51.31750 4.41239 7037 ft 242 kts 208°
2026-04-30 21:05 51.30280 4.39983 7038 ft 238 kts 197°
2026-04-30 21:05 51.28712 4.39209 7035 ft 234 kts 187°
2026-04-30 21:05 51.27113 4.38934 7036 ft 225 kts 176°
2026-04-30 21:06 51.25599 4.39108 7041 ft 216 kts 169°
2026-04-30 21:06 51.24102 4.39364 7041 ft 216 kts 163°
2026-04-30 21:06 51.22764 4.40314 6939 ft 212 kts 145°
2026-04-30 21:06 51.21599 4.41754 6805 ft 211 kts 136°
2026-04-30 21:07 51.20574 4.43425 6651 ft 210 kts 130°
2026-04-30 21:07 51.19639 4.45189 6319 ft 208 kts 139°
2026-04-30 21:07 51.18319 4.46037 5975 ft 210 kts 176°
2026-04-30 21:07 51.16919 4.45355 5626 ft 217 kts 207°
2026-04-30 21:08 51.15630 4.44096 5290 ft 216 kts 205°
2026-04-30 21:08 51.14327 4.42923 4994 ft 215 kts 204°
2026-04-30 21:08 51.13021 4.41773 4688 ft 213 kts 204°
2026-04-30 21:08 51.11768 4.40668 4534 ft 203 kts 203°
2026-04-30 21:09 51.10563 4.39599 4322 ft 195 kts 203°
2026-04-30 21:09 51.09390 4.38558 4045 ft 192 kts 203°
2026-04-30 21:09 51.08231 4.37526 3769 ft 190 kts 202°
2026-04-30 21:09 51.07080 4.36503 3480 ft 188 kts 201°
2026-04-30 21:10 51.05941 4.35491 3165 ft 188 kts 201°
2026-04-30 21:10 51.04805 4.34482 3036 ft 188 kts 201°
2026-04-30 21:10 51.03655 4.33463 3037 ft 190 kts 201°
2026-04-30 21:10 51.02498 4.32434 3038 ft 191 kts 201°
2026-04-30 21:11 51.01335 4.31400 3037 ft 191 kts 201°
2026-04-30 21:11 51.00179 4.30370 3036 ft 190 kts 201°
2026-04-30 21:11 50.99034 4.29319 3033 ft 193 kts 207°
2026-04-30 21:11 50.98011 4.27896 3036 ft 196 kts 210°
2026-04-30 21:12 50.97008 4.26449 3036 ft 200 kts 220°
2026-04-30 21:12 50.96104 4.24766 3033 ft 201 kts 222°
2026-04-30 21:12 50.95212 4.23043 3035 ft 202 kts 222°
2026-04-30 21:12 50.94332 4.21307 3034 ft 202 kts 223°
2026-04-30 21:13 50.93445 4.19575 3036 ft 201 kts 223°
2026-04-30 21:13 50.92559 4.17855 3032 ft 201 kts 223°
2026-04-30 21:13 50.91677 4.16146 3035 ft 200 kts 223°
2026-04-30 21:13 50.90797 4.14435 3028 ft 201 kts 221°
2026-04-30 21:14 50.89754 4.13164 3045 ft 176 kts 194°
2026-04-30 21:14 50.88671 4.12835 3025 ft 145 kts 171°
2026-04-30 21:14 50.87745 4.13170 3022 ft 133 kts 152°
2026-04-30 21:14 50.86992 4.13982 3025 ft 131 kts 134°
2026-04-30 21:15 50.86468 4.15169 3026 ft 133 kts 117°
2026-04-30 21:15 50.86107 4.16513 3048 ft 132 kts 116°
2026-04-30 21:15 50.85744 4.17845 3040 ft 132 kts 117°
2026-04-30 21:15 50.85385 4.19163 3035 ft 132 kts 117°
2026-04-30 21:16 50.85021 4.20493 3033 ft 131 kts 117°
2026-04-30 21:16 50.84659 4.21818 3033 ft 131 kts 117°
2026-04-30 21:16 50.84318 4.23163 3032 ft 133 kts 111°
2026-04-30 21:16 50.84181 4.24612 3041 ft 135 kts 98°
2026-04-30 21:17 50.84295 4.26097 2892 ft 137 kts 85°
2026-04-30 21:17 50.84651 4.27490 2694 ft 134 kts 75°
2026-04-30 21:17 50.85038 4.28796 2506 ft 129 kts 75°
2026-04-30 21:17 50.85413 4.30080 2336 ft 128 kts 76°
2026-04-30 21:18 50.85782 4.31348 2164 ft 126 kts 75°
2026-04-30 21:18 50.86149 4.32610 1995 ft 127 kts 75°
2026-04-30 21:18 50.86516 4.33878 1822 ft 126 kts 76°
2026-04-30 21:18 50.86879 4.35139 1653 ft 126 kts 74°
2026-04-30 21:19 50.87239 4.36395 1483 ft 127 kts 74°
2026-04-30 21:19 50.87603 4.37662 1317 ft 126 kts 73°
2026-04-30 21:19 50.87955 4.38934 1157 ft 125 kts 73°
2026-04-30 21:19 50.88310 4.40201 941 ft 128 kts 72°
2026-04-30 21:20 50.88697 4.41501 705 ft 131 kts 67°
2026-04-30 21:20 50.89088 4.42790 612 ft 130 kts 68°
2026-04-30 21:20 50.89465 4.44087 419 ft 129 kts 70°
2026-04-30 21:20 50.89828 4.45366 285 ft 127 kts 69°
2026-04-30 21:21 50.90195 4.46628 149 ft 117 kts 69°
2026-04-30 21:21 50.90467 4.47580 138 ft 71 kts 64°
2026-04-30 21:21 50.90656 4.48286 138 ft 13 kts 103°
2026-04-30 21:22 50.90615 4.48414 139 ft 13 kts 121°
2026-04-30 21:22 50.90598 4.48462 138 ft 0 kts 119°
2026-04-30 21:23 50.90594 4.48473 138 ft 2 kts 119°
2026-04-30 21:23 50.90582 4.48505 137 ft 6 kts 120°
2026-04-30 21:23 50.90542 4.48717 132 ft 12 kts 65°
2026-04-30 21:24 50.90578 4.48839 128 ft 12 kts 66°
2026-04-30 21:24 50.90608 4.48947 130 ft 10 kts 65°
2026-04-30 21:24 50.90637 4.49042 125 ft 9 kts 65°
2026-04-30 21:24 50.90637 4.49136 127 ft 9 kts 127°
2026-04-30 21:25 50.90561 4.49198 128 ft 6 kts 155°
2026-04-30 21:25 50.90507 4.49238 133 ft 11 kts 155°
2026-04-30 21:25 50.90424 4.49297 135 ft 14 kts 155°
2026-04-30 21:26 50.90308 4.49255 138 ft 10 kts 245°
2026-04-30 21:26 50.90282 4.49164 139 ft 8 kts 245°
2026-04-30 21:27 50.90242 4.49024 142 ft 6 kts 246°
2026-04-30 21:27 50.90216 4.48989 143 ft 3 kts 176°
2026-04-30 21:27 50.90209 4.48997 143 ft 3 kts 141°
2026-04-30 21:28 50.90182 4.49048 143 ft 3 kts 151°
2026-04-30 21:28 50.90176 4.49053 143 ft 0 kts 152°
2026-04-30 21:28 50.90164 4.49063 144 ft 0 kts 154°